[[{"header":{"parameterUnit":"m.s-1","parameterCategory":1,"la1":30.2991,"la2":30.254,"lo1":-89.0895,"lo2":-89.0444,"dx":0.0017,"dy":0.0017,"nx":28,"ny":28,"refTime":"2022-12-16T15:00:00:Z","depth":0,"parameterNumber":2,"parameterNumberName":"U-component_of_WINDS"},"data":[0,0,0,0,0,0,0,0,0,0,0,0,0,0,0,0,0,0,0,0,0,0,0,0,0,0,0,0,0,0,0,0,0,0,0,0,0,0,0,0,0,0,0,0,0,0,0,0,0,0,0,0,0,0,0,0,0,0,1.148,1.148,0,1.1438,1.1437,1.1437,1.1438,1.1438,1.1439,1.1439,1.1391,1.1389,1.1387,0,0,0,0,0,0,0,0,0,0,0,0,0,1.1556,1.1555,1.148,1.148,1.1479,1.1438,1.1437,1.1437,1.1438,1.1438,1.1439,1.144,1.1391,1.1389,1.1387,0,0,0,0,0,0,0,0,0,0,0,0,0,1.1519,1.1554,1.148,1.1475,1.1474,1.1438,1.1437,1.1436,1.1437,1.1438,1.1439,1.144,1.1392,1.1389,1.1387,1.1352,0,0,1.1378,1.1377,0,0,0,0,0,0,0,0,1.1521,1.1516,1.1476,1.1475,1.1474,1.1444,1.1446,1.1408,1.1437,1.1451,1.1439,1.144,1.1407,1.1403,1.1393,1.135,1.1347,1.1378,1.1376,1.1375,1.1374,0,0,0,0,0,0,0,1.1524,1.1518,1.1463,1.1475,1.1474,1.1472,1.1468,1.1439,1.1425,1.145,1.145,1.1445,1.1407,1.1396,1.1392,1.1347,1.1378,1.1376,1.1374,1.1373,1.1269,1.1268,0,0,0,0,0,0,1.1528,1.152,1.1464,1.1462,1.15,1.147,1.1466,1.1453,1.1425,1.1422,1.1444,1.1445,1.14,1.1395,1.1391,1.1346,1.1375,1.1373,1.1371,1.127,1.1269,1.1267,0,0,0,0,0,0,1.153,1.1523,1.1466,1.1491,1.1484,1.1468,1.1453,1.1451,1.144,1.1421,1.1418,1.1436,1.1401,1.1394,1.1361,1.1344,1.1371,1.1369,1.1271,1.127,1.1268,1.1257,0,0,0,0,0,0,1.1532,1.1524,1.1512,1.1491,1.1482,1.1439,1.1453,1.145,1.1436,1.1437,1.1412,1.1409,1.1401,1.1365,1.1358,1.1341,1.1367,1.1273,1.1271,1.1269,1.1259,1.1255,1.1252,0,0,0,0,0,1.1535,1.151,1.1511,1.1505,1.1467,1.1438,1.1433,1.1426,1.1435,1.1422,1.1409,1.141,1.1348,1.1362,1.1354,1.1335,1.1274,1.1271,1.1269,1.126,1.1256,1.1252,0,0,0,0,0,0,1.1528,1.1507,1.1508,1.1477,1.1459,1.1439,1.1422,1.1422,1.1401,1.1402,1.1393,1.1387,1.1353,1.1341,1.1357,1.1299,1.1311,1.1307,1.1307,1.1303,1.13,1.1302,1.1364,0,0,0,0,0,1.1523,1.1503,1.1485,1.1459,1.145,1.1438,1.1425,1.1421,1.1402,1.1394,1.1379,1.1359,1.1334,1.1318,1.1295,1.1257,1.125,1.124,1.1237,1.1235,1.123,1.1206,1.1201,1.1259,1.1259,1.1259,0,0,1.1512,1.1498,1.1486,1.1457,1.1443,1.142,1.1431,1.1407,1.1389,1.139,1.1357,1.1345,1.1322,1.1286,1.1269,1.1275,1.1213,1.1231,1.1229,1.1226,1.1203,1.1198,1.1193,1.1258,1.1258,1.1258,0,0,1.148,1.1469,1.1445,1.1431,1.141,1.1402,1.1396,1.1375,1.1367,1.1335,1.1334,1.1311,1.127,1.1253,1.1239,1.1199,1.1198,1.1192,1.1173,1.115,1.1146,1.1141,1.1124,1.1119,1.1188,1.1188,1.1188,0,1.1469,1.1436,1.1432,1.1407,1.1393,1.1394,1.1367,1.1353,1.1325,1.1314,1.1322,1.1269,1.1254,1.1212,1.1202,1.1192,1.1182,1.1194,1.1147,1.1143,1.1139,1.1122,1.1116,1.1187,1.1187,1.1187,1.1187,0,1.1422,1.1399,1.1381,1.1356,1.134,1.1314,1.1303,1.1288,1.1285,1.1275,1.124,1.1221,1.1193,1.1183,1.118,1.114,1.1144,1.115,1.1162,1.1132,1.1117,1.111,1.1186,1.1186,1.1187,1.1187,0,0,1.1384,1.1356,1.1349,1.1336,1.1313,1.1294,1.1268,1.1241,1.1227,1.1207,1.1183,1.1147,1.1152,1.1136,1.113,1.111,1.1076,1.1118,1.1117,1.1108,1.1028,1.1022,1.1015,1.1076,1.1075,1.1074,1.1029,0,1.1348,1.1303,1.1297,1.1255,1.1233,1.1232,1.1209,1.1191,1.118,1.1158,1.1146,1.112,1.1129,1.1119,1.1099,1.1085,1.1059,1.1088,1.105,1.1049,1.1054,1.1007,1.1002,1.0959,1.1023,1.1022,1.1021,0,1.1299,1.1279,1.1236,1.1214,1.1204,1.1184,1.1158,1.1137,1.1116,1.1109,1.1091,1.1087,1.1057,1.1072,1.1028,1.1048,1.1032,1.1022,1.1021,1.1015,1.1032,1.0997,1.0946,1.0939,1.1012,1.1012,1.1013,0,1.1272,1.1235,1.1203,1.1193,1.1167,1.1152,1.114,1.112,1.1104,1.1081,1.107,1.1043,1.1028,1.1006,1.0994,1.1007,1.095,1.0965,1.0941,1.0941,1.0928,1.0928,1.087,1.0922,1.0922,1.0922,1.0922,0,1.1231,1.1204,1.1191,1.1171,1.114,1.1133,1.1101,1.109,1.1071,1.1047,1.1046,1.1023,1.101,1.0985,1.0976,1.0939,1.0933,1.0924,1.0922,1.0923,1.0924,1.0911,1.0912,1.092,1.0921,1.0921,1.0921,0,1.1195,1.1186,1.1151,1.113,1.1124,1.1101,1.1082,1.1061,1.1051,1.1021,1.1013,1.0996,1.0966,1.0953,1.0916,1.091,1.0867,1.0868,1.0874,1.0873,1.0849,1.085,1.0778,1.0767,1.0829,1.0828,1.0828,0,1.1168,1.1148,1.1124,1.1109,1.1097,1.1072,1.1056,1.1047,1.103,1.1003,1.0985,1.0955,1.0931,1.0882,1.0865,1.0835,1.0834,1.0811,1.0829,1.083,1.0829,1.083,1.0826,1.0806,1.0806,1.0805,1.0805,0,1.1121,1.1117,1.1094,1.1069,1.105,1.103,1.101,1.0997,1.0985,1.0965,1.0935,1.0916,1.0878,1.0847,1.0816,1.0801,1.0799,1.0799,1.0792,1.0792,1.0795,1.079,1.0862,1.0801,1.0801,1.0801,1.0801,1.0802,1.1086,1.1067,1.1047,1.1021,1.1005,1.0986,1.0965,1.0953,1.0928,1.0897,1.0894,1.086,1.0837,1.0796,1.078,1.0752,1.0757,1.0747,1.0744,1.074,1.0737,1.0802,1.0746,1.0747,1.0747,1.0747,1.0747,0,1.1036,1.1023,1.1,1.0972,1.0951,1.0954,1.0931,1.0913,1.0884,1.0863,1.0839,1.0803,1.0773,1.0753,1.0722,1.0703,1.0701,1.0695,1.0694,1.069,1.0736,1.0744,1.0696,1.0696,1.0696,1.0696,1.0696,1.0696,1.1007,1.0973,1.0967,1.0924,1.0911,1.088,1.0866,1.0847,1.0831,1.0791,1.0766,1.0754,1.0733,1.07,1.0671,1.0666,1.0653,1.0645,1.064,1.0682,1.0688,1.0692,1.07,1.0644,1.0643,1.0596,1.0596,1.0595]},{"header":{"parameterUnit":"m.s-1","parameterCategory":1,"la1":30.2991,"la2":30.254,"lo1":-89.0895,"lo2":-89.0444,"dx":0.0017,"dy":0.0017,"nx":28,"ny":28,"refTime":"2022-12-16T15:00:00:Z","depth":0,"parameterNumber":3,"parameterNumberName":"V-component_of_WINDS"},"data":[0,0,0,0,0,0,0,0,0,0,0,0,0,0,0,0,0,0,0,0,0,0,0,0,0,0,0,0,0,0,0,0,0,0,0,0,0,0,0,0,0,0,0,0,0,0,0,0,0,0,0,0,0,0,0,0,0,0,1.9037,1.904,0,1.9291,1.9294,1.9296,1.9308,1.9305,1.9302,1.93,1.9561,1.957,1.958,0,0,0,0,0,0,0,0,0,0,0,0,0,1.8561,1.8569,1.9036,1.904,1.9043,1.929,1.9294,1.9297,1.9309,1.9305,1.9302,1.9298,1.9557,1.9569,1.9581,0,0,0,0,0,0,0,0,0,0,0,0,0,1.8786,1.8572,1.9036,1.9079,1.9085,1.929,1.9294,1.9298,1.931,1.9305,1.9301,1.9297,1.9554,1.9568,1.9582,1.9762,0,0,1.9627,1.9633,0,0,0,0,0,0,0,0,1.8773,1.8804,1.9069,1.9076,1.9083,1.9263,1.9222,1.9454,1.9311,1.9224,1.93,1.9294,1.9465,1.9487,1.9544,1.9774,1.9785,1.9628,1.9637,1.9643,1.9647,0,0,0,0,0,0,0,1.8758,1.8793,1.9137,1.9073,1.9082,1.9085,1.9112,1.9266,1.9367,1.9232,1.9233,1.9263,1.9468,1.953,1.9551,1.9789,1.9628,1.9641,1.965,1.9655,2.0176,2.0181,0,0,0,0,0,0,1.8734,1.878,1.9129,1.9145,1.8914,1.9097,1.9127,1.921,1.9365,1.9385,1.9266,1.9263,1.9508,1.9534,1.956,1.9779,1.9643,1.9657,1.9665,2.0171,2.0177,2.0183,0,0,0,0,0,0,1.8724,1.8765,1.9119,1.8963,1.9008,1.911,1.9203,1.9217,1.9279,1.9392,1.941,1.9311,1.9505,1.9539,1.9711,1.9789,1.9663,1.9677,2.0165,2.0173,2.018,2.022,0,0,0,0,0,0,1.871,1.8761,1.8831,1.8964,1.9016,1.9266,1.9208,1.9226,1.9304,1.9302,1.9438,1.9457,1.9504,1.9689,1.9725,1.9806,1.9688,2.0159,2.0169,2.0178,2.0213,2.0229,2.0242,0,0,0,0,0,1.8693,1.8833,1.8835,1.8877,1.9106,1.9271,1.9301,1.9352,1.9311,1.9381,1.9453,1.9452,1.9774,1.9707,1.9748,1.9834,2.0154,2.0166,2.0177,2.0206,2.0225,2.0242,0,0,0,0,0,0,1.8708,1.8851,1.8855,1.9042,1.9144,1.9272,1.9364,1.9371,1.9488,1.948,1.9539,1.957,1.974,1.9804,1.9726,2.0015,1.9959,1.9979,1.9967,1.9987,2.0001,1.9982,1.97,0,0,0,0,0,1.8732,1.8854,1.8973,1.9127,1.9178,1.9262,1.9336,1.9366,1.9474,1.9518,1.9602,1.9707,1.9831,1.9912,2.0033,2.0221,2.0251,2.0301,2.0315,2.0327,2.0344,2.0447,2.047,2.0221,2.022,2.022,0,0,1.8785,1.8879,1.8953,1.9132,1.9215,1.9339,1.9298,1.9432,1.9525,1.9538,1.9705,1.977,1.9891,2.0071,2.0155,2.013,2.0419,2.0341,2.035,2.0361,2.0461,2.0484,2.0505,2.0228,2.0227,2.0226,0,0,1.8946,1.9029,1.9165,1.9248,1.9373,1.9428,1.946,1.9587,1.9631,1.9799,1.9811,1.9921,2.0135,2.022,2.0291,2.048,2.0484,2.0518,2.0595,2.0694,2.0714,2.0732,2.0799,2.0822,2.0534,2.0534,2.0534,0,1.8996,1.9185,1.9235,1.9369,1.9447,1.9462,1.9601,1.9679,1.9837,1.989,1.986,2.0126,2.0209,2.0409,2.0454,2.0511,2.055,2.0503,2.0707,2.0725,2.0743,2.0807,2.0832,2.0538,2.0537,2.0537,2.0536,0,1.924,1.937,1.9465,1.9616,1.9705,1.984,1.991,1.9994,2.0015,2.0072,2.0242,2.0341,2.0482,2.0531,2.0554,2.0734,2.0714,2.0695,2.064,2.0769,2.083,2.0856,2.0542,2.0541,2.054,2.0539,0,0,1.942,1.9594,1.9629,1.9696,1.9834,1.9935,2.007,2.0206,2.0276,2.0384,2.0498,2.0677,2.0659,2.074,2.0772,2.0859,2.1001,2.0829,2.0833,2.0858,2.1204,2.1218,2.1246,2.1003,2.1008,2.1012,2.1194,0,1.9595,1.9836,1.9883,2.0092,2.0212,2.0227,2.0344,2.0441,2.0497,2.0606,2.0668,2.0794,2.0761,2.0809,2.0896,2.0966,2.1072,2.0953,2.111,2.1115,2.1081,2.1278,2.1295,2.1461,2.1218,2.1222,2.1225,0,1.9833,1.9945,2.0165,2.0284,2.0336,2.0441,2.0569,2.0673,2.0782,2.0817,2.0905,2.0927,2.1067,2.1004,2.1197,2.1115,2.1182,2.1225,2.1233,2.125,2.1179,2.1301,2.1515,2.154,2.1264,2.126,2.1258,0,1.9942,2.0148,2.0305,2.0363,2.0506,2.0579,2.0642,2.0746,2.0824,2.0935,2.0986,2.1112,2.1182,2.1278,2.1333,2.1283,2.1522,2.1464,2.1554,2.1553,2.1605,2.1601,2.1833,2.1647,2.1646,2.1646,2.1645,0,2.0134,2.0268,2.0356,2.0453,2.0603,2.0655,2.0802,2.0864,2.0956,2.1065,2.1086,2.1187,2.1253,2.1364,2.1408,2.156,2.1591,2.1623,2.1633,2.1622,2.1618,2.1667,2.1658,2.1653,2.1651,2.165,2.1649,0,2.0282,2.0346,2.0519,2.0639,2.0672,2.0777,2.088,2.0974,2.1029,2.1166,2.1202,2.1288,2.1419,2.1483,2.1646,2.1675,2.1848,2.185,2.1811,2.1815,2.1902,2.1893,2.2175,2.2214,2.2,2.2002,2.2004,0,2.0401,2.0504,2.0634,2.0708,2.0772,2.0891,2.097,2.1025,2.1106,2.1236,2.1315,2.1446,2.1555,2.1764,2.1841,2.1965,2.1971,2.2061,2.199,2.1975,2.1973,2.1966,2.1976,2.2074,2.2076,2.2078,2.2079,0,2.0604,2.063,2.0743,2.0867,2.0961,2.1061,2.116,2.1219,2.1289,2.1379,2.1513,2.1597,2.1762,2.1893,2.2022,2.2086,2.2095,2.21,2.2128,2.2118,2.2091,2.2107,2.1846,2.2094,2.2093,2.2092,2.2091,2.209,2.0742,2.0834,2.0939,2.1064,2.1143,2.1234,2.1328,2.1393,2.1505,2.1644,2.1669,2.1811,2.1914,2.2089,2.2157,2.2268,2.2248,2.2288,2.2298,2.2307,2.2312,2.2072,2.2292,2.2291,2.2291,2.2291,2.229,0,2.0947,2.1014,2.1128,2.1265,2.1362,2.136,2.1468,2.155,2.1674,2.177,2.1875,2.2028,2.2154,2.2239,2.2367,2.2439,2.2446,2.2471,2.2467,2.2481,2.2323,2.2286,2.2463,2.2463,2.2463,2.2463,2.2463,2.2463,2.1065,2.122,2.1257,2.1451,2.1517,2.1656,2.1718,2.1801,2.1878,2.2047,2.2151,2.2205,2.2297,2.243,2.2545,2.2567,2.2613,2.2638,2.266,2.251,2.2492,2.2475,2.2441,2.2648,2.2648,2.2809,2.281,2.2811]}]]